YAOGAN-31 B (43276 NORAD) Tracking and Keplerian Element Data

This shows tracking and keplerian element data for the satellite.

Feedback or suggestion? Click here.




ElementValue
Catalog43276
NameYAOGAN-31 B
Epoch Orbit401
Epoch Day130.13101997
Epoch Year2018
RAAN135.7235
Inclination63.4052
Eccentricity0.0010497
Argument of Perigee7.8089
Mean Anonmoly352.3082
Mean Motion13.45174446
Decay Rate-9E-07
L11 43276U 18034B 18130.13101997 -.00000090 00000-0 00000+0 0 9991
L22 43276 63.4052 135.7235 0010497 7.8089 352.3082 13.45174446 4010

Live tracking and technical data element details for YAOGAN-31 B (NORAD 43276). YAOGAN-31 B can be tracked NOW for your location showing map with azimuth and elevation plus other details from your city location.

Track the satellite on the map from your city or location and see movement details for azimuth, elevation, latitude, longitude, range, height, and movement on the map or in text.







IsCatalogInMostPopularTable: catalog: 43276, numindb: 34
Update: records affected: 1



GetName: 43276 YAOGAN-31 B

Hit Count: updated at: Sun, 15 Jul 2018 23:11:04 GMT